Weather History for Valdosta Regional, GA

Change the Weather History Date:

Saturday, January 5, 2013

  Actual Average Record
Temperature  
Mean Temperature 51 °F 50 °F  
Max Temperature 61 °F 62 °F - ()
Min Temperature 41 °F 39 °F - ()
Degree Days  
Heating Degree Days 14 15  
Month to date heating degree days 49 75  
Since 1 July heating degree days 490 688  
Growing Degree Days 1 (Base 50)    
Moisture  
Dew Point 35 °F    
Average Humidity 60    
Maximum Humidity 89    
Minimum Humidity 30    
Precipitation  
Precipitation 0.03 in 0.22 in - ()
Month to date precipitation 0.13 1.18  
Year to date precipitation 0.13 1.18  
Sea Level Pressure  
Sea Level Pressure 30.35 in    
Wind  
Wind Speed 3 mph (NE)    
Max Wind Speed 8 mph    
Max Gust Speed 10 mph    
Visibility 9 miles    
Events      
T = Trace of Precipitation, MM = Missing Value Source: NWS Daily Summary

Daily Weather History Graph

Daily Weather History Graph

Search for Another Location

Airport:

Trip Planner

Search our weather history database for the weather conditions in past years. The results will help you decide how hot, cold, wet, or windy it might be!

Date:

Astronomy

Jan. 05, 2013 Rise Set
Actual Time 7:31 AM EST 5:45 PM EST
Civil Twilight 7:05 AM EST 6:12 PM EST
Nautical Twilight 6:35 AM EST 6:42 PM EST
Astronomical Twilight 6:05 AM EST 7:11 PM EST
Moon 12:50 AM EST (1/5) 12:23 PM EST (1/5)
Length of Visible Light 11h 07m
Length of Day
10h 14m
Last Quarter, 44% of the Moon is Illuminated
Jan 5
Last Quarter
Jan 11
New
Jan 18
First Quarter
Jan 26
Full
Feb 3
Last Quarter

Hourly Weather History & Observations

Time (EST) Temp. Windchill Dew Point Humidity Pressure Visibility Wind Dir Wind Speed Gust Speed Precip Events Conditions
12:53 AM 43.0 °F - 39.9 °F 89% 30.36 in 3.0 mi Calm Calm - N/A   Clear
1:53 AM 43.0 °F - 39.0 °F 86% 30.36 in 4.0 mi Calm Calm - N/A   Clear
2:53 AM 43.0 °F 40.3 °F 37.9 °F 82% 30.35 in 9.0 mi North 4.6 mph - N/A   Clear
3:53 AM 45.0 °F 41.8 °F 36.0 °F 71% 30.36 in 10.0 mi NNE 5.8 mph - N/A   Clear
4:53 AM 43.0 °F - 34.0 °F 71% 30.36 in 10.0 mi Calm Calm - N/A   Clear
5:53 AM 42.1 °F 40.2 °F 35.1 °F 76% 30.37 in 10.0 mi Variable 3.5 mph - 0.01 in   Clear
6:53 AM 41.0 °F 37.1 °F 32.0 °F 70% 30.38 in 10.0 mi NNE 5.8 mph - N/A   Clear
7:53 AM 41.0 °F 36.4 °F 30.0 °F 65% 30.39 in 10.0 mi NNE 6.9 mph - N/A   Mostly Cloudy
8:53 AM 43.0 °F 38.8 °F 28.9 °F 58% 30.40 in 10.0 mi NNE 6.9 mph - N/A   Mostly Cloudy
9:53 AM 46.9 °F - 30.0 °F 52% 30.41 in 10.0 mi NE 3.5 mph - N/A   Mostly Cloudy
10:53 AM 51.1 °F - 30.0 °F 44% 30.40 in 10.0 mi Variable 3.5 mph - N/A   Mostly Cloudy
11:53 AM 57.0 °F - 27.0 °F 32% 30.38 in 10.0 mi NNE 6.9 mph - N/A   Mostly Cloudy
12:53 PM 57.9 °F - 28.9 °F 33% 30.34 in 10.0 mi Variable 3.5 mph - N/A   Mostly Cloudy
1:53 PM 59.0 °F - 28.9 °F 32% 30.32 in 10.0 mi Calm Calm - N/A   Mostly Cloudy
2:53 PM 60.1 °F - 30.0 °F 32% 30.31 in 10.0 mi East 3.5 mph - N/A   Mostly Cloudy
3:53 PM 61.0 °F - 32.0 °F 34% 30.31 in 10.0 mi NE 5.8 mph - N/A   Clear
4:53 PM 59.0 °F - 33.1 °F 38% 30.32 in 10.0 mi ENE 3.5 mph - 0.01 in   Clear
5:53 PM 55.0 °F - 39.9 °F 57% 30.31 in 10.0 mi Calm Calm - N/A   Clear
6:53 PM 52.0 °F - 41.0 °F 66% 30.34 in 10.0 mi Calm Calm - N/A   Scattered Clouds
7:53 PM 51.1 °F - 39.9 °F 66% 30.34 in 10.0 mi Calm Calm - N/A   Clear
8:53 PM 51.1 °F - 41.0 °F 68% 30.33 in 10.0 mi Calm Calm - 0.01 in   Partly Cloudy
9:53 PM 53.1 °F - 39.0 °F 59% 30.35 in 10.0 mi Calm Calm - N/A   Mostly Cloudy
10:53 PM 52.0 °F - 41.0 °F 66% 30.33 in 10.0 mi Calm Calm - N/A   Mostly Cloudy
11:53 PM 50.0 °F - 43.0 °F 77% 30.33 in 10.0 mi Calm Calm - 0.00 in   Overcast